Simultaneous Nadir Overpasses (SNOs) Predictions

Prediction of SNOs between LANDSAT-8 and METOP-A Satellite Orbit:

Table of predicted SNOs for the next 14.0 days since TLE Epoch: 10/10/2014
Index Date (LANDSAT-8) Time (LANDSAT-8) Lat,Lon (LANDSAT-8) SZA (LANDSAT-8 ) Date (METOP-A) Time (METOP-A) Lat,Lon (METOP-A) SZA (METOP-A ) Distance(km) Time Diff (sec)
1 10/10/2014 09:41:25 -81.10,-105.85 89.92 10/10/2014 09:40:58 -81.11,-105.73 89.92 2.28 27
2 10/10/2014 10:30:50 81.12, 62.19 90.16 10/10/2014 10:31:38 81.12, 62.06 90.16 2.17 48
3 10/13/2014 05:15:40 -81.10, -39.34 88.84 10/13/2014 05:15:19 -81.11, -39.29 88.84 0.99 21
4 10/13/2014 06:05:05 81.13, 128.68 91.24 10/13/2014 06:05:58 81.13, 128.85 91.28 2.98 53
5 10/16/2014 00:49:55 -81.10, 27.04 87.79 10/16/2014 00:49:40 -81.10, 27.10 87.79 1.21 15
6 10/16/2014 01:39:20 81.12,-164.95 92.28 10/16/2014 01:40:19 81.13,-164.79 92.33 2.85 59
7 10/18/2014 20:24:08 -81.11, 93.67 86.73 10/18/2014 20:23:59 -81.12, 93.83 86.71 2.68 9
8 10/18/2014 21:13:33 81.13, -98.33 93.35 10/18/2014 21:14:39 81.13, -98.48 93.36 2.66 66
9 10/21/2014 15:09:37 79.85, -21.02 91.96 10/21/2014 15:08:24 80.19, -22.64 92.10 49.33 73
10 10/21/2014 15:58:22 -81.12, 160.18 85.70 10/21/2014 15:58:20 -81.11, 160.13 85.71 0.98 2




NCC Satellite Simultaneous Nadir Overpasses (SNOs) Prediction Service
